This is the latest recevied weather packets stored in our database for station/object F5ZQC-13. If no packets are shown the sender has not sent any weather packets the latest 1 day(s).
| Time | Temp. | Humidity | Pressure | Rain* | Wind** | Luminosity | Snow |
|---|---|---|---|---|---|---|---|
| 1778014985 | 11.67° C | 57% | 1010.6 hPa | 0 mm | 0.89 m/s, 225° | - | - |
| 1778014741 | 11.67° C | 57% | 1010.4 hPa | 0 mm | 0.45 m/s, 225° | - | - |
| 1778014618 | 11.67° C | 57% | 1010.1 hPa | 0 mm | 0.89 m/s, 225° | - | - |
| 1778014496 | 11.67° C | 57% | 1010.5 hPa | 0 mm | 0 m/s | - | - |
| 1778014251 | 12.22° C | 57% | 1010.5 hPa | 0 mm | 0.45 m/s, 292° | - | - |
| 1778014133 | 12.22° C | 57% | 1010.5 hPa | 0 mm | 0.89 m/s, 292° | - | - |
| 1778014008 | 12.22° C | 57% | 1010.3 hPa | 0 mm | 0.89 m/s, 292° | - | - |
| 1778013763 | 12.22° C | 58% | 1010.1 hPa | 0 mm | 0 m/s | - | - |
| 1778013518 | 11.67° C | 58% | 1010.5 hPa | 0 mm | 0 m/s | - | - |
| 1778013273 | 11.67° C | 57% | 1010.3 hPa | 0 mm | 0.45 m/s, 315° | - | - |
| 1778013029 | 11.67° C | 58% | 1010.4 hPa | 0 mm | 1.34 m/s, 225° | - | - |
| 1778012785 | 11.67° C | 58% | 1010 hPa | 0 mm | 0.45 m/s, 315° | - | - |
| 1778012662 | 11.67° C | 53% | 1010.3 hPa | 0 mm | 0.89 m/s, 292° | - | - |
| 1778012539 | 11.67° C | 56% | 1010.3 hPa | 0 mm | 1.34 m/s, 292° | - | - |
| 1778012295 | 11.67° C | 56% | 1010.2 hPa | 0 mm | 0 m/s | - | - |
| 1778012173 | 11.67° C | 57% | 1010.2 hPa | 0 mm | 0.45 m/s, 292° | - | - |
| 1778012050 | 11.67° C | 57% | 1010.3 hPa | 0 mm | 0 m/s | - | - |
| 1778011929 | 11.67° C | 58% | 1010.2 hPa | 0 mm | 0.45 m/s, 225° | - | - |
| 1778011806 | 11.67° C | 57% | 1010.2 hPa | 0 mm | 0.45 m/s, 337° | - | - |
| 1778011684 | 11.67° C | 57% | 1010.3 hPa | 0 mm | 0.45 m/s, 337° | - | - |
| 1778011562 | 11.67° C | 58% | 1010.2 hPa | 0 mm | 0.89 m/s, 225° | - | - |
| 1778011195 | 11.67° C | 58% | 1010.3 hPa | 0 mm | 1.79 m/s, 337° | - | - |
| 1778011073 | 11.67° C | 55% | 1010 hPa | 0 mm | 1.79 m/s, 315° | - | - |
| 1778010950 | 11.67° C | 57% | 1009.8 hPa | 0 mm | 0.45 m/s, 315° | - | - |
| 1778010827 | 11.67° C | 56% | 1009.7 hPa | 0 mm | 1.34 m/s, 281° | - | - |
* Rain since midnight (hover to see other rain measurements)
** Current wind speed in m/s (hover to see current wind gust speed)